FLOCK 3K-5 (43899 NORAD) Tracking and Keplerian Element Data

This shows tracking and keplerian element data for the satellite.

Feedback or suggestion? Click here.




ElementValue
Catalog43899
NameFLOCK 3K-5
Epoch Orbit22307
Epoch Day359.16198026
Epoch Year2022
RAAN248.4296
Inclination97.158
Eccentricity0.0011983
Argument of Perigee92.6166
Mean Anonmoly267.6478
Mean Motion15.87500898
Decay Rate0.00903005
L11 43899U 18111Z 22359.16198026 .00903005 32749-3 34341-2 0 9991
L22 43899 97.1580 248.4296 0011983 92.6166 267.6478 15.87500898223077



Live tracking and technical data element details for FLOCK 3K-5 (NORAD 43899). FLOCK 3K-5 can be tracked NOW for your location showing map with azimuth and elevation plus other details from your city location.







IsCatalogInMostPopularTable: catalog: 43899, numindb: 455
Update: records affected: 1



GetName: 43899 FLOCK 3K-5

Hit Count: updated at: Thu, 22 May 2025 03:57:14 GMT